Regional Weather Roundup
Issued by NWS

Home | Current Version | Previous Version | Graphics & Text | Print | Product List | Glossary On
Versions: 1 2 3 4 5 6 7 8 9 10 11 12 13 14 15 16 17 18 19 20 21 22 23 24 25 26 27 28 29 30 31 32 33 34 35 36 37 38 39 40 41 42 43 44 45 46 47 48 49 50
000
ASUS43 KLSX 212259
RWRMO

WEATHER SUMMARY FOR MISSOURI
NATIONAL WEATHER SERVICE SPRINGFIELD MO
600 PM CDT TUE OCT 21 2014

NOTE: "FAIR" INDICATES FEW OR NO CLOUDS BELOW 12,000 FEET WITH NO
       SIGNIFICANT WEATHER AND/OR OBSTRUCTIONS TO VISIBILITY.
       CURRENT SKY AND/OR WEATHER CONDITIONS ARE NOT AVAILABLE FOR
       CHILLICOTHE AND FARMINGTON.

MOZ001>031-035>038-043-044-053-054-220000-
...NORTHERN AND WESTERN MISSOURI...

CITY           SKY/WX    TMP DP  RH WIND       PRES   REMARKS
KANSAS CTY INT CLEAR     68  45  43 SE8       30.07S
KANSAS C DTWN  CLEAR     70  44  39 E8        30.05F
LEE`S SUMMIT   CLEAR     69  44  40 E5        30.08S
ST JOSEPH      CLEAR     69  42  37 SE6       30.06S
KIRKSVILLE     CLEAR     61  45  55 E6        30.14R

$$
MOZ066>068-077>081-088>096-101>105-220000-
...SOUTHWEST MISSOURI...

CITY           SKY/WX    TMP DP  RH WIND       PRES   REMARKS
SPRINGFIELD    CLEAR     70  46  42 NE5       30.07F
JOPLIN         CLEAR     73  49  42 NE5       30.06F

$$
MOZ032>034-039>042-045>050-055>058-069>072-220000-
...CENTRAL MISSOURI...

CITY           SKY/WX    TMP DP  RH WIND       PRES   REMARKS
COLUMBIA       CLEAR     66  45  46 NE7       30.10S
JEFFERSON CITY CLEAR     70  44  39 NE6       30.09R
ROLLA          CLEAR     65  46  50 NE3       30.08S
SEDALIA        CLEAR     72  43  35 CALM      30.10S
WHITEMAN AFB   CLEAR     71  41  34 CALM      30.08S
OSAGE BEACH    CLEAR     66  43  42 NE3       30.09S

$$
MOZ051-052-059>065-220000-
...EAST CENTRAL MISSOURI...

CITY           SKY/WX    TMP DP  RH WIND       PRES   REMARKS
ST LOUIS INTL  CLEAR     64  42  44 NE8       30.12S
SPIRIT OF STL  CLEAR     61  43  51 E6        30.11R
ST CHARLES     CLEAR     61  43  51 NE5       30.12R

$$
MOZ072>076-082>087-097>100-106>115-220000-
...SOUTH CENTRAL AND SOUTHEAST MISSOURI...

CITY           SKY/WX    TMP DP  RH WIND       PRES   REMARKS
CAPE GIRARDEAU CLEAR     65  45  48 N6        30.08R
FARMINGTON     CLEAR     63  45  51 N8        30.12S
POPLAR BLUFF   CLEAR     70  45  40 NE6       30.04S
WEST PLAINS    CLEAR     70  42  36 N3        30.08F

$$



USA.gov is the U.S. government's official web portal to all federal, state and local government web resources and services.